Mattoon, IL

7:36 AM CDT on October 22, 2019 (GMT -0500)
Coles County Memorial

Weather History for KMTO - May, 2019

Change the Weather History Date:

Tuesday, May 28, 2019

  Actual Average Record
Temperature  
Mean Temperature 78 °F 67 °F  
Max Temperature 86 °F 77 °F 94 °F (2018)
Min Temperature 69 °F 56 °F 42 °F (1992)
Degree Days  
Heating Degree Days 0 2  
Month to date heating degree days 130 123  
Since 1 July heating degree days 5517 5385  
Cooling Degree Days 13 4  
Month to date cooling degree days 100 63  
Year to date cooling degree days 105 77  
Growing Degree Days 28 (Base 50)    
Moisture  
Dew Point 65 °F    
Average Humidity 66    
Maximum Humidity 84    
Minimum Humidity 48    
Precipitation  
Precipitation T in 0.12 in 1.80 in (1955)
Month to date precipitation 2.44 4.04  
Year to date precipitation 11.46 14.02  
Sea Level Pressure  
Sea Level Pressure 29.73 in    
Wind  
Wind Speed 11 mph (SSW)    
Max Wind Speed 22 mph    
Max Gust Speed 33 mph    
Visibility 10 miles    
Events      
T = Trace of Precipitation, MM = Missing Value Source: NWS Daily Summary

Daily Weather History Graph

Daily Weather History Graph

Search for Another Location

Airport or City:

Astronomy

May. 28, 2019 Rise Set
Actual Time 5:29 AM CDT 8:11 PM CDT
Civil Twilight 4:58 AM CDT 8:42 PM CDT
Nautical Twilight 4:19 AM CDT 9:22 PM CDT
Astronomical Twilight 3:34 AM CDT 10:06 PM CDT
Moon 2:39 AM CDT (5/28) 2:22 PM CDT (5/28)
Length of Visible Light 15h 44m
Length of Day
14h 41m
Waning Crescent, 31% of the Moon is Illuminated
May 28
Waning Crescent
Jun 3
New
Jun 10
First Quarter
Jun 17
Full
Jun 25
Last Quarter

Hourly Weather History & Observations

Time (CDT) Temp. Heat Index Dew Point Humidity Pressure Visibility Wind Dir Wind Speed Gust Speed Precip Events Conditions
12:53 AM 75.0 °F - 64.9 °F 71% 29.74 in 10.0 mi SSW 10.4 mph 18.4 mph N/A   Clear
1:53 AM 75.0 °F - 64.9 °F 71% 29.73 in 10.0 mi SSW 10.4 mph 19.6 mph N/A   Clear
2:53 AM 75.0 °F - 64.9 °F 71% 29.73 in 10.0 mi SSW 9.2 mph - N/A   Partly Cloudy
3:53 AM 73.9 °F - 64.9 °F 73% 29.75 in 9.0 mi SSW 9.2 mph - N/A   Overcast
4:53 AM 73.0 °F - 64.9 °F 76% 29.74 in 10.0 mi SSW 8.1 mph - N/A   Mostly Cloudy
5:53 AM 72.0 °F - 64.9 °F 78% 29.75 in 10.0 mi SSW 9.2 mph - N/A   Overcast
6:53 AM 72.0 °F - 66.0 °F 81% 29.75 in 10.0 mi SSW 9.2 mph - N/A   Clear
7:53 AM 75.0 °F - 66.9 °F 76% 29.76 in 10.0 mi SSW 11.5 mph - N/A   Clear
8:53 AM 77.0 °F - 66.9 °F 71% 29.77 in 10.0 mi SW 11.5 mph 23.0 mph N/A   Clear
9:53 AM 79.0 °F - 66.9 °F 66% 29.78 in 10.0 mi SSW 10.4 mph - N/A   Clear
10:53 AM 81.0 °F 83.3 °F 66.9 °F 62% 29.76 in 10.0 mi SSW 10.4 mph 21.9 mph N/A   Clear
11:53 AM 82.0 °F 84.5 °F 66.9 °F 60% 29.76 in 10.0 mi SW 9.2 mph 25.3 mph N/A   Partly Cloudy
12:53 PM 82.0 °F 83.8 °F 64.9 °F 56% 29.75 in 10.0 mi SW 10.4 mph 19.6 mph N/A   Mostly Cloudy
1:53 PM 84.0 °F 85.8 °F 64.9 °F 53% 29.76 in 10.0 mi SSW 10.4 mph 19.6 mph N/A   Scattered Clouds
2:53 PM 84.0 °F 85.8 °F 64.9 °F 53% 29.75 in 10.0 mi SSW 12.7 mph 24.2 mph N/A   Scattered Clouds
3:53 PM 84.9 °F 86.6 °F 64.9 °F 51% 29.73 in 10.0 mi SSW 16.1 mph 26.5 mph N/A   Partly Cloudy
4:53 PM 84.0 °F 85.4 °F 64.0 °F 51% 29.72 in 10.0 mi SSW 11.5 mph 19.6 mph N/A   Partly Cloudy
5:53 PM 84.0 °F 84.9 °F 63.0 °F 49% 29.66 in 10.0 mi South 15.0 mph 26.5 mph N/A   Clear
7:53 PM 81.0 °F 82.2 °F 63.0 °F 54% 29.64 in 10.0 mi South 15.0 mph 26.5 mph 0.00 in   Clear
8:53 PM 80.1 °F 81.5 °F 63.0 °F 56% 29.66 in 10.0 mi South 16.1 mph 27.6 mph N/A   Clear
9:53 PM 78.1 °F - 64.0 °F 62% 29.73 in 10.0 mi SW 6.9 mph - N/A   Clear
10:53 PM 75.9 °F - 64.0 °F 67% 29.73 in 9.0 mi SSW 3.5 mph - N/A   Clear
11:53 PM 73.9 °F - 64.0 °F 71% 29.71 in 10.0 mi South 4.6 mph - N/A   Clear